Погода в Порт-Антонио

Ямайка     18°10′04″N   76°26′34″W
темп.,
°C
ветер,
м/с
пор.,
м/с
влажн.,
%
обл.,
%
осадки,
мм/ч
давл.,
гПа
погр.,
м
9 мая, вс
вс901:00+25юв46815 0.1 1016568
04:00+24юв56828 0.1 1015571
07:00+25вюв46773 0.3 1017652
10:00+27в56676 0.3 10181025
13:00+27в67675 0.4 1016971
16:00+27в57682 0.1 1015991
19:00+26вюв57771 0.1 1016634
22:00+25юв57780 0.0 1017626
10 мая, пн
пн1001:00+25вюв57819 0.0 1016680
04:00+25вюв58806 0.1 1015800
07:00+26вюв68750 0.2 1016985
10:00+28вюв710651 0.0 10171290
13:00+28вюв7106610 0.1 10151221
16:00+28вюв78690 0.1 10151042
19:00+26вюв57750 0.2 1016559
22:00+25юв68770 0.0 1016550
11 мая, вт
вт1101:00+25юв68760 0.1 1016755
04:00+25юв68780 0.1 1015860
07:00+26вюв58720 0.3 1017899
10:00+28вюв79620 0.1 10171055
13:00+29вюв710600 0.1 10151075
16:00+28вюв89660 0.0 1014920
19:00+26юв68770 0.0 1016552
22:00+26юв69780 0.0 1017598
12 мая, ср
ср1201:00+25юв69832 0.1 1016692
04:00+25вюв68812 0.2 1015859
07:00+26юв69777 0.2 1016924
10:00+28вюв57665 0.1 10171062
13:00+29вюв79643 0.1 10161130
16:00+28вюв810640 0.0 1014874
19:00+26юв68812 0.0 1015584
22:00+25юв58825 0.0 1016479
13 мая, чт
чт1301:00+25ююв610845 0.0 1016602
04:00+25юв68835 0.1 1015623
07:00+27вюв46765 0.1 1016691
10:00+28вюв56665 0.0 1016888
13:00+29в77662 0.0 1015979
16:00+28вюв79670 0.0 1014824
19:00+26юв68800 0.0 1014543
22:00+26юв57811 0.0 1016389